Location: La Brionne
(46.1728°N, 1.7849°E)
Time: 19:46:44
(UTC+00:00)

FENGYUN 1C DEB - Visible Passes

Search period start: 16 January 2022 00:00
Search period end: 26 January 2022 00:00
Orbit: 807 x 951 km, 99.0° (Epoch: 16 January)

Date Brightness Start Highest point End Pass type
(mag) Time Alt. Az. Time Alt. Az. Time Alt. Az.
16 Jan ? 19:15:21 20° N 19:15:21 20° N 19:17:18 10° N visible
16 Jan ? 20:57:57 13° NNW 20:57:57 13° NNW 20:58:37 10° NNW visible
17 Jan ? 19:11:42 21° NNE 19:11:42 21° NNE 19:13:45 10° N visible
17 Jan ? 20:54:18 14° NNW 20:54:18 14° NNW 20:55:10 10° NNW visible
18 Jan ? 19:08:02 21° NNE 19:08:02 21° NNE 19:10:12 10° N visible
18 Jan ? 20:50:38 15° NNW 20:50:38 15° NNW 20:51:42 10° NNW visible
19 Jan ? 19:04:23 21° NNE 19:04:23 21° NNE 19:06:39 10° N visible
19 Jan ? 20:46:59 17° NNW 20:46:59 17° NNW 20:48:14 10° NNW visible
20 Jan ? 19:00:42 21° NNE 19:00:42 21° NNE 19:03:05 10° N visible
20 Jan ? 20:43:18 18° NNW 20:43:18 18° NNW 20:44:46 10° NNW visible
21 Jan ? 18:57:02 21° NNE 18:57:02 21° NNE 18:59:31 10° N visible
21 Jan ? 20:39:38 19° NNW 20:39:38 19° NNW 20:41:17 10° NNW visible
22 Jan ? 18:53:22 21° NNE 18:53:22 21° NNE 18:55:56 10° N visible
22 Jan ? 20:35:58 21° NNW 20:35:58 21° NNW 20:37:47 10° NNW visible
23 Jan ? 18:49:41 21° NNE 18:49:41 21° NNE 18:52:21 10° N visible
23 Jan ? 20:32:17 22° NNW 20:32:17 22° NNW 20:34:18 10° NNW visible
24 Jan ? 18:46:00 21° NNE 18:46:00 21° NNE 18:48:45 10° N visible
24 Jan ? 20:28:36 24° NNW 20:28:36 24° NNW 20:30:47 10° NNW visible
25 Jan ? 18:42:19 21° NE 18:42:19 21° NE 18:45:08 10° N visible
25 Jan ? 20:24:55 25° NNW 20:24:55 25° NNW 20:27:17 10° NNW visible
